TimeCDT,TemperatureF,Dew PointF,Humidity,Sea Level PressureIn,VisibilityMPH,Wind Direction,Wind SpeedMPH,Gust SpeedMPH,PrecipitationIn,Events,Conditions,WindDirDegrees,DateUTC
12:15 AM,54.3,51.6,91,30.25,7.0,ENE,4.6,-,N/A,,Overcast,70,2013-09-17 05:15:00
12:35 AM,54.5,51.4,89,30.25,7.0,East,4.6,-,N/A,,Overcast,80,2013-09-17 05:35:00
12:55 AM,54.9,51.8,89,30.24,7.0,East,4.6,-,N/A,,Overcast,90,2013-09-17 05:55:00
1:15 AM,55.4,51.8,88,30.24,7.0,East,5.8,-,N/A,,Overcast,90,2013-09-17 06:15:00
1:35 AM,55.4,51.4,87,30.24,10.0,East,5.8,-,N/A,,Overcast,90,2013-09-17 06:35:00
1:55 AM,55.4,51.3,86,30.24,10.0,East,5.8,-,N/A,,Overcast,100,2013-09-17 06:55:00
2:15 AM,55.6,51.4,86,30.23,10.0,East,5.8,-,N/A,,Overcast,100,2013-09-17 07:15:00
2:35 AM,55.8,51.4,85,30.23,10.0,East,6.9,-,N/A,,Overcast,100,2013-09-17 07:35:00
2:55 AM,55.9,51.4,85,30.22,10.0,ESE,4.6,-,N/A,,Overcast,110,2013-09-17 07:55:00
3:15 AM,56.1,51.6,85,30.21,10.0,East,5.8,-,N/A,,Overcast,100,2013-09-17 08:15:00
3:35 AM,56.3,51.8,85,30.21,10.0,East,4.6,-,N/A,,Overcast,100,2013-09-17 08:35:00
3:55 AM,56.3,51.8,85,30.20,10.0,ESE,5.8,-,N/A,,Overcast,110,2013-09-17 08:55:00
4:15 AM,56.3,51.6,84,30.20,10.0,ESE,5.8,-,N/A,,Overcast,120,2013-09-17 09:15:00
4:35 AM,56.3,51.8,85,30.20,10.0,SE,5.8,-,N/A,,Overcast,130,2013-09-17 09:35:00
4:55 AM,56.3,51.8,85,30.21,10.0,SE,4.6,-,N/A,,Overcast,140,2013-09-17 09:55:00
5:15 AM,55.8,52.5,89,30.21,5.0,Calm,Calm,-,0.03,Rain,Rain,0,2013-09-17 10:15:00
5:35 AM,55.4,52.7,91,30.20,4.0,Calm,Calm,-,0.09,Rain,Rain,0,2013-09-17 10:35:00
5:55 AM,55.4,52.9,91,30.20,5.0,ESE,4.6,-,0.13,Rain,Light Rain,110,2013-09-17 10:55:00
6:15 AM,55.4,53.1,92,30.19,5.0,ESE,6.9,-,0.03,Rain,Rain,110,2013-09-17 11:15:00
6:35 AM,55.4,53.2,92,30.19,7.0,East,6.9,-,0.05,,Drizzle,100,2013-09-17 11:35:00
6:55 AM,55.0,53.2,94,30.19,7.0,East,5.8,-,0.05,,Overcast,100,2013-09-17 11:55:00
7:15 AM,55.0,53.2,94,30.19,7.0,East,5.8,-,N/A,,Overcast,100,2013-09-17 12:15:00
7:35 AM,55.0,53.2,94,30.19,5.0,East,5.8,-,N/A,,Overcast,100,2013-09-17 12:35:00
7:55 AM,55.0,53.6,95,30.19,4.0,ESE,6.9,-,N/A,Rain,Rain,110,2013-09-17 12:55:00
8:15 AM,55.4,53.6,94,30.19,7.0,East,5.8,-,0.01,,Overcast,100,2013-09-17 13:15:00
8:35 AM,55.4,53.6,94,30.18,5.0,ESE,6.9,-,0.01,,Light Drizzle,110,2013-09-17 13:35:00
8:55 AM,55.4,53.6,94,30.18,4.0,ESE,6.9,-,0.01,Rain,Rain,120,2013-09-17 13:55:00
9:15 AM,55.4,53.8,94,30.18,4.0,ESE,6.9,-,N/A,,Light Drizzle,120,2013-09-17 14:15:00
9:35 AM,55.8,54.1,94,30.18,5.0,ESE,6.9,-,N/A,,Overcast,120,2013-09-17 14:35:00
9:55 AM,56.3,54.5,94,30.18,5.0,SE,8.1,-,N/A,,Overcast,130,2013-09-17 14:55:00
10:15 AM,56.5,54.7,94,30.17,5.0,ESE,5.8,-,N/A,,Overcast,120,2013-09-17 15:15:00
10:35 AM,57.2,55.2,93,30.17,5.0,ESE,6.9,-,N/A,Rain,Light Rain,120,2013-09-17 15:35:00
10:55 AM,57.7,55.6,92,30.17,4.0,SE,6.9,-,N/A,,Overcast,130,2013-09-17 15:55:00
11:15 AM,58.1,55.9,93,30.16,4.0,SE,8.1,-,N/A,,Overcast,140,2013-09-17 16:15:00
11:35 AM,58.6,56.5,93,30.15,3.0,SE,8.1,-,N/A,,Overcast,140,2013-09-17 16:35:00
11:55 AM,59.2,57.2,93,30.14,3.0,SE,9.2,-,N/A,,Light Drizzle,130,2013-09-17 16:55:00
12:15 PM,60.1,58.1,93,30.14,4.0,SE,11.5,-,N/A,,Overcast,140,2013-09-17 17:15:00
12:35 PM,60.8,57.9,90,30.13,7.0,SE,9.2,-,N/A,,Overcast,140,2013-09-17 17:35:00
12:55 PM,61.2,58.1,90,30.12,7.0,SSE,9.2,-,N/A,,Overcast,150,2013-09-17 17:55:00
1:15 PM,62.1,58.3,87,30.12,7.0,South,8.1,-,N/A,,Overcast,170,2013-09-17 18:15:00
1:35 PM,61.2,58.3,90,30.11,7.0,SSE,6.9,-,N/A,,Overcast,150,2013-09-17 18:35:00
1:55 PM,61.7,58.3,89,30.09,7.0,SSE,10.4,-,N/A,,Overcast,150,2013-09-17 18:55:00
2:15 PM,61.7,58.5,89,30.09,7.0,SE,10.4,16.1,N/A,,Overcast,140,2013-09-17 19:15:00
2:35 PM,61.9,58.6,89,30.09,5.0,SSE,5.8,-,N/A,,Overcast,150,2013-09-17 19:35:00
2:55 PM,62.1,59.0,90,30.08,5.0,SSE,8.1,-,N/A,,Overcast,150,2013-09-17 19:55:00
3:15 PM,62.2,59.0,89,30.07,5.0,SSE,8.1,-,N/A,,Overcast,150,2013-09-17 20:15:00
3:35 PM,62.6,59.5,90,30.06,4.0,SE,9.2,-,N/A,,Overcast,140,2013-09-17 20:35:00
3:55 PM,62.6,59.9,91,30.06,4.0,SE,9.2,-,N/A,,Overcast,140,2013-09-17 20:55:00
4:15 PM,62.6,59.9,91,30.05,3.0,SSE,8.1,-,N/A,,Overcast,150,2013-09-17 21:15:00
4:35 PM,63.0,60.3,91,30.04,3.0,SE,5.8,-,N/A,,Overcast,140,2013-09-17 21:35:00
4:55 PM,63.5,60.8,91,30.04,3.0,SE,5.8,-,N/A,,Overcast,140,2013-09-17 21:55:00
5:15 PM,63.5,60.8,91,30.03,3.0,SE,10.4,-,N/A,,Overcast,140,2013-09-17 22:15:00
5:35 PM,63.9,61.0,90,30.02,3.0,SE,8.1,-,N/A,,Overcast,130,2013-09-17 22:35:00
5:55 PM,63.9,61.0,90,30.02,4.0,SE,10.4,-,N/A,,Overcast,130,2013-09-17 22:55:00
6:15 PM,64.0,61.2,90,30.02,4.0,SE,9.2,-,N/A,,Overcast,140,2013-09-17 23:15:00
6:35 PM,64.2,61.5,91,30.01,4.0,SE,9.2,-,N/A,,Overcast,140,2013-09-17 23:35:00
6:55 PM,64.4,61.3,90,30.01,4.0,SE,8.1,-,N/A,,Overcast,140,2013-09-17 23:55:00
7:15 PM,64.2,61.5,91,30.00,5.0,SE,9.2,-,N/A,,Overcast,130,2013-09-18 00:15:00
7:35 PM,64.0,61.7,92,30.00,4.0,ESE,6.9,-,N/A,,Overcast,120,2013-09-18 00:35:00
7:55 PM,64.4,61.7,91,29.99,5.0,ESE,9.2,-,N/A,,Overcast,120,2013-09-18 00:55:00
8:15 PM,64.4,61.7,91,30.00,5.0,SE,9.2,-,N/A,,Overcast,140,2013-09-18 01:15:00
8:35 PM,64.6,61.7,90,30.00,5.0,SE,8.1,17.3,N/A,,Overcast,140,2013-09-18 01:35:00
8:55 PM,64.8,61.7,90,30.01,7.0,SSE,6.9,-,N/A,,Overcast,150,2013-09-18 01:55:00
9:15 PM,64.8,61.7,90,30.01,5.0,SSE,6.9,-,N/A,,Overcast,150,2013-09-18 02:15:00
9:35 PM,64.9,61.9,90,30.01,5.0,SE,9.2,-,N/A,,Overcast,140,2013-09-18 02:35:00
9:55 PM,65.1,61.9,89,30.01,7.0,SSE,8.1,16.1,N/A,,Overcast,150,2013-09-18 02:55:00
10:15 PM,65.3,61.9,89,30.01,7.0,SSE,10.4,-,N/A,,Overcast,150,2013-09-18 03:15:00
10:35 PM,65.3,61.7,88,30.01,7.0,SSE,8.1,-,N/A,,Overcast,150,2013-09-18 03:35:00
10:55 PM,65.3,61.7,88,30.01,7.0,SSE,8.1,-,N/A,,Overcast,150,2013-09-18 03:55:00
11:15 PM,65.3,61.7,88,30.01,7.0,SSE,10.4,16.1,N/A,,Overcast,150,2013-09-18 04:15:00
11:35 PM,65.3,61.7,88,30.01,7.0,SSE,10.4,16.1,N/A,,Overcast,160,2013-09-18 04:35:00
11:55 PM,65.3,61.7,88,30.01,7.0,SSE,9.2,16.1,N/A,,Overcast,160,2013-09-18 04:55:00